Regional Weather Roundup
Issued by NWS

Home | Current Version | Previous Version | Text Only | Print | Product List | Glossary On
Versions: 1 2 3 4 5 6 7 8 9 10 11 12 13 14 15 16 17 18 19 20 21 22 23 24 25 26 27 28 29 30 31 32 33 34 35 36 37 38 39 40 41 42 43 44 45 46 47 48 49 50
000
ASUS44 KLUB 042110
RWRTX
WEST TEXAS WEATHER ROUNDUP
NATIONAL WEATHER SERVICE LUBBOCK TX
400 PM CDT SAT JUL 04 2015

NOTE: "FAIR" INDICATES FEW OR NO CLOUDS BELOW 12,000 FEET WITH NO
SIGNIFICANT WEATHER AND/OR OBSTRUCTIONS TO VISIBILITY.

TXZ004-006>008-010-012-014-016-OKZ002-042200-
TEXAS PANHANDLE/OKLAHOMA PANHANDLE

CITY           SKY/WX    TMP DP  RH WIND       PRES   REMARKS
AMARILLO       SUNNY     88  60  38 S14G21    30.02F
BORGER         SUNNY     90  58  33 S9        29.99F
CANADIAN       SUNNY     91  68  47 S12       29.95F HX  95
DALHART        SUNNY     93  57  29 S21G29    30.01F
DUMAS          MOSUNNY   87  63  43 S18G24    30.01F
GUYMON         SUNNY     93  60  33 S15G25    29.93F
HEREFORD       MOSUNNY   89  60  38 MISG      30.04F
PAMPA          SUNNY     88  58  36 S15       30.01F
PERRYTON       SUNNY     91  58  32 S16       29.97F
$$

TXZ026-029-035-045-048-042200-
SOUTHERN PANHANDLE/SOUTH PLAINS/ROLLING PLAINS

CITY           SKY/WX    TMP DP  RH WIND       PRES   REMARKS
CHILDRESS      SUNNY     93  64  38 S14       29.94F
SEMINOLE       MOSUNNY   90  58  33 SE10      30.02F
LUBBOCK        PTSUNNY   89  59  36 SE14G23   30.02F
PLAINVIEW      SUNNY     87  65  47 S10       30.01F
SNYDER         MOSUNNY   87  66  48 SE12      30.00F
$$

TXZ052-054-060>062-072-078-127-140-154-169-042200-
PERMIAN BASIN/CONCHO VALLEY/BIG COUNTRY/EDWARDS PLATEAU

CITY           SKY/WX    TMP DP  RH WIND       PRES   REMARKS
ABILENE        MOSUNNY   92  65  40 SE12G21   29.97F
BIG SPRING     MOSUNNY   88  61  40 SE7       30.01F
BRADY          MOSUNNY   91  63  38 N10       29.98F
BROWNWOOD      MOSUNNY   91  63  38 S8        29.97F
JUNCTION       MOSUNNY   91  64  40 SE15      29.99F
MIDLAND        MOSUNNY   89  64  43 SE15G22   29.99F
ODESSA         MOSUNNY   89  62  40 SE14      30.00F
SAN ANGELO     MOSUNNY   92  63  38 S10G20    29.97F
SONORA         SUNNY     90  64  43 S12       30.03F
SWEETWATER     SUNNY     89  63  41 SE14      30.02F
WINK           SUNNY     90  62  39 SE10G20   29.95F
$$

TXZ055-058-074-075-080-082-042200-
FAR WEST/SOUTHWEST MOUNTAINS/TRANS PECOS

CITY           SKY/WX    TMP DP  RH WIND       PRES   REMARKS
ALPINE         PTSUNNY   83  60  45 SE5       30.11F
DRYDEN           N/A     89  67  47 SE8G18    29.95F
EL PASO        PTSUNNY   93  51  23 S5        29.96F
FORT STOCKTON  PTSUNNY   87  65  47 E17G23    29.98F
GUADALUPE PASS SUNNY     83  55  38 E16       30.13F
MARFA          PTSUNNY  N/A N/A N/A E17       30.10R
PECOS          MOSUNNY   91  61  36 E13       29.93F
PRESIDIO       FAIR      91  64  40 NE8G16    29.91F
$$

TXZ014-016-019-021>030-083-042200
TEXAS TECH WEST TEXAS MESONET/TEXAS PANHANDLE/NORTHERN SOUTH PLAINS

CITY           SKY/WX    TMP DP  RH WIND       PRES   REMARKS
ABERNATHY 5ENE   N/A     86  59  40 SE10      30.03F
AMARILLO 9NNE    N/A     89  63  41 S16       29.99F
AMARILLO 7SSE    N/A     90  58  33 S14       30.02F
AMHERST 1NE      N/A     86  58  37 SE7       30.03F
BOOTLEG 11WNW    N/A     87  58  37 S9        30.07F
CANADIAN 6E      N/A     90  67  45 S12       29.94F
CAPROCK CYN SP   N/A     91  64  40 SE8       29.98F
CHILDRESS 2NNE   N/A     93  64  37 S12       29.94F
CLARENDON 2WSW   N/A     91  62  37 S9        29.98F
CLAUDE 12SW      N/A     89  64  42 S10       30.01F
DIMMITT 2NE      N/A     86  61  43 SE13      30.04F
FLOYDADA 2NNE    N/A     89  56  32 S12       30.01F
FRIONA 2NE       N/A     88  57  34 SE10      30.04F
GOODLETT 3W      N/A     94  62  33 S13       29.92F HX  95
HART 3N          N/A     87  62  43 S8        30.04F
HEREFORD 2NW     N/A     87  56  34 S12       30.03F
MCLEAN 1E        N/A     89  64  42 S10       29.98F
MEMPHIS 1NE      N/A     92  62  36 S10       29.94F
MULESHOE 2SSW    N/A     88  59  38 SE13      30.03F
OLTON 6S         N/A     87  57  37 S9        30.02F
PALO DURO SP     N/A     91  63  39 S10       30.02F
PAMPA 2E         N/A     88  60  38 S13       30.00F
PLAINVIEW 1S     N/A     89  59  36 S7        30.01F
SILVERTON 7ESE   N/A     90  62  39 SE12      30.01F
TULIA 2ENE       N/A     88  61  40 S10       30.02F
TURKEY 2WSW      N/A     92  60  33 S14       29.96F
UMBARGER 3NNE    N/A     89  60  37 S13       30.03F
$$

TXZ033>036-039>041-045>048-042200
TEXAS TECH WEST TEXAS MESONET/SOUTH PLAINS

CITY           SKY/WX    TMP DP  RH WIND       PRES   REMARKS
AIKEN 3WSW       N/A     89  62  40 S7        30.03F
ANDREWS 2NE      N/A     89  57  33 SE8       30.01F
ANTON 6SSW       N/A     91  58  32 SE14      30.02F
BROWNFIELD 2S    N/A     89  55  32 SE8       30.02F
DENVR CTY 7WNW   N/A     89  52  27 SE7       30.03F
GAIL 2ESE        N/A     88  65  46 SE8       29.98F
LAMESA 2SE       N/A     88  61  40 SE12      30.01F
LEVELLAND 4S     N/A     89  56  32 SE9       30.02F
LUBBOCK 3WNW     N/A     88  60  38 SE7       30.02F
MORTON 1ENE      N/A     90  55  30 SE10      30.03F
ODONNELL 1N      N/A     89  59  35 SE9G20    30.01F
PLAINS 3N        N/A     89  56  32 SE8       30.03F
RALLS 1SE        N/A     87  59  39 SE12      30.02F
REESE CENTER     N/A     89  57  34 S12       30.02F
SEAGRAVES 1SW    N/A     89  58  34 SE6       30.01F
SEMINOLE 2NNE    N/A     90  56  31 SE8       30.01F
SLATON 2NE       N/A     88  57  34 SE7       30.02F
SNYDER 3E        N/A     89  64  42 S12       29.99S
SUNDOWN 8SW      N/A     88  58  36 SE12      30.03F
TAHOKA 3NNE      N/A     90  57  33 S5        30.01F
WOLFFORTH 6SSW   N/A     89  58  35 SE10      30.02F
$$

TXZ031-032-036>038-042>044-042200-
TEXAS TECH WEST TEXAS MESONET/ROLLING PLAINS

CITY           SKY/WX    TMP DP  RH WIND       PRES   REMARKS
FLUVANNA 3WNW    N/A     87  63  43 SE10G20   30.00F
GRAHAM 5SSW      N/A     88  61  39 S9        30.00F
GUTHRIE 10WSW    N/A     94  62  34 S12       29.94F HX  95
HASKELL 1NW      N/A     95  59  29 S8        29.93F
JAYTON 1SSE      N/A     93  62  35 S9        29.96F
KNOX CITY 3NW    N/A     95  58  28 S10       29.93F
LK A HENRY 1NW   N/A     92  63  37 SW9       29.97F
NORTHFIELD 1S    N/A     94  62  34 SE10      29.94F
ODELL 4ENE       N/A     94  67  42 S10       29.92F HX  97
PADUCAH 10SW     N/A     94  60  32 SE13      29.94F
POST 1NE         N/A     89  62  39 SE8       29.99F
RRING SPRGS 3N   N/A     89  63  40 S9        29.98F
SEYMOUR 3NW      N/A     93  64  38 SE13      29.92F
SPUR 1W          N/A     90  59  35 SE12      29.97F
WEINERT 2NNE     N/A     94  66  40 SE12      29.93F HX  97
WHITE RVR 6NE    N/A     89  60  38 S14       29.99F
$$

TXZ052-054-060>062-072-078-127-140-154-169-042200-
TEXAS TECH WEST TEXAS MESONET/PERMIAN BASIN/
CONCHO VALLEY/BIG COUNTRY/EDWARDS PLATEAU

CITY           SKY/WX    TMP DP  RH WIND       PRES   REMARKS
COYANOSA 2N      N/A     91  64  41 E12       29.94F
JUNCTION 1SSW    N/A     90  66  45 SE14      29.99F
MERTZON 3NNE     N/A     85  65  50 SE7       29.99F
SAN ANGELO 7NW   N/A     89  62  39 SE9G18    29.98F
STRLNG CT 4WSW   N/A     91  62  39 S12       30.00F
ST LAWRNCE 5SW   N/A     88  62  41 S12       29.99F
SWEETWATR 11SW   N/A     89  64  43 SE14      30.00F
WALL 1E          N/A     92  58  32 SE8       29.98F
$$

TXZ055-058-074-075-080-082-042200-
TEXAS TECH WEST TEXAS MESONET/FAR WEST/SOUTHWEST MOUNTAINS/TRANS PECOS

CITY           SKY/WX    TMP DP  RH WIND       PRES   REMARKS
PRSMN GAP BBNP   N/A     92  65  41 NE15      29.93F
$$



USA.gov is the U.S. government's official web portal to all federal, state and local government web resources and services.